Time,TemperatureF,DewpointF,PressureIn,WindDirection,WindDirectionDegrees,WindSpeedMPH,WindSpeedGustMPH,Humidity,HourlyPrecipIn,Conditions,Clouds,dailyrainin,SoftwareType,DateUTC
2013-02-15 04:19:00,24.1,6.8,29.74,North,-999,0.0,3.6,47,0.00,,,-99.99,FreeWX 2.04,2013-02-15 09:19:00,
2013-02-15 06:22:00,22.5,3.9,29.79,North,-999,0.0,5.4,44,0.00,,,-99.99,FreeWX 2.04,2013-02-15 11:22:00,
2013-02-15 06:27:00,22.3,3.2,29.79,NW,317,1.0,7.8,43,0.00,,,-99.99,FreeWX 2.04,2013-02-15 11:27:00,
2013-02-15 06:32:00,22.1,2.5,29.79,North,-999,0.0,6.3,42,0.00,,,-99.99,FreeWX 2.04,2013-02-15 11:32:00,
2013-02-15 06:37:00,22.1,2.5,29.79,North,-999,0.0,5.4,42,0.00,,,-99.99,FreeWX 2.04,2013-02-15 11:37:00,
2013-02-15 06:42:00,22.1,2.5,29.79,North,-999,0.0,6.3,42,0.00,,,-99.99,FreeWX 2.04,2013-02-15 11:42:00,
2013-02-15 06:47:00,21.9,2.3,29.79,North,-999,0.0,2.7,42,0.00,,,-99.99,FreeWX 2.04,2013-02-15 11:47:00,
2013-02-15 06:52:00,21.9,2.8,29.82,North,-999,0.0,8.7,43,0.00,,,-99.99,FreeWX 2.04,2013-02-15 11:52:00,
2013-02-15 06:57:00,21.9,2.8,29.82,North,-999,0.0,2.7,43,0.00,,,-99.99,FreeWX 2.04,2013-02-15 11:57:00,
2013-02-15 07:02:00,21.9,2.8,29.82,North,-999,0.0,4.0,43,0.00,,,-99.99,FreeWX 2.04,2013-02-15 12:02:00,
2013-02-15 07:07:00,21.6,2.5,29.82,North,-999,0.0,4.0,43,0.00,,,-99.99,FreeWX 2.04,2013-02-15 12:07:00,
2013-02-15 07:12:00,21.4,2.5,29.82,North,-999,0.0,5.8,43,0.00,,,-99.99,FreeWX 2.04,2013-02-15 12:12:00,
2013-02-15 07:17:00,21.0,2.1,29.82,North,-999,0.0,5.8,43,0.00,,,-99.99,FreeWX 2.04,2013-02-15 12:17:00,
2013-02-15 07:22:00,20.8,1.9,29.82,North,-999,0.0,4.5,43,0.00,,,-99.99,FreeWX 2.04,2013-02-15 12:22:00,
2013-02-15 07:27:00,20.8,1.9,29.82,North,-999,0.0,4.5,43,0.00,,,-99.99,FreeWX 2.04,2013-02-15 12:27:00,
2013-02-15 07:32:00,20.7,1.8,29.82,North,-999,0.0,4.5,43,0.00,,,-99.99,FreeWX 2.04,2013-02-15 12:32:00,
2013-02-15 07:37:00,20.3,0.9,29.82,North,-999,0.0,4.9,42,0.00,,,-99.99,FreeWX 2.04,2013-02-15 12:37:00,
2013-02-15 07:42:00,19.8,0.9,29.82,North,-999,0.0,2.7,43,0.00,,,-99.99,FreeWX 2.04,2013-02-15 12:42:00,
2013-02-15 07:47:00,19.6,0.7,29.82,North,-999,0.0,0.0,43,0.00,,,-99.99,FreeWX 2.04,2013-02-15 12:47:00,
2013-02-15 07:52:00,19.6,0.7,29.85,North,-999,0.0,3.6,43,0.00,,,-99.99,FreeWX 2.04,2013-02-15 12:52:00,
2013-02-15 07:57:00,19.8,0.9,29.85,North,-999,0.0,6.3,43,0.00,,,-99.99,FreeWX 2.04,2013-02-15 12:57:00,
2013-02-15 08:02:00,19.9,1.0,29.85,North,-999,0.0,0.0,43,0.00,,,-99.99,FreeWX 2.04,2013-02-15 13:02:00,
2013-02-15 08:07:00,20.1,1.2,29.85,North,-999,0.0,4.5,43,0.00,,,-99.99,FreeWX 2.04,2013-02-15 13:07:00,
2013-02-15 08:12:00,20.1,1.2,29.85,North,-999,0.0,4.5,43,0.00,,,-99.99,FreeWX 2.04,2013-02-15 13:12:00,
2013-02-15 08:17:00,20.1,1.2,29.85,North,-999,0.0,0.0,43,0.00,,,-99.99,FreeWX 2.04,2013-02-15 13:17:00,
2013-02-15 08:22:00,20.3,1.4,29.85,North,-999,0.0,0.0,43,0.00,,,-99.99,FreeWX 2.04,2013-02-15 13:22:00,
2013-02-15 08:27:00,20.3,1.4,29.85,North,-999,0.0,0.0,43,0.00,,,-99.99,FreeWX 2.04,2013-02-15 13:27:00,
2013-02-15 08:32:00,20.3,1.4,29.85,North,-999,0.0,7.4,43,0.00,,,-99.99,FreeWX 2.04,2013-02-15 13:32:00,
2013-02-15 08:37:00,19.8,0.5,29.85,North,-999,0.0,6.9,42,0.00,,,-99.99,FreeWX 2.04,2013-02-15 13:37:00,
2013-02-15 08:42:00,19.4,-0.4,29.85,North,-999,0.0,4.5,41,0.00,,,-99.99,FreeWX 2.04,2013-02-15 13:42:00,
2013-02-15 08:47:00,19.4,0.1,29.85,North,-999,0.0,0.0,42,0.00,,,-99.99,FreeWX 2.04,2013-02-15 13:47:00,
2013-02-15 08:52:00,19.6,0.7,29.88,North,-999,0.0,6.3,43,0.00,,,-99.99,FreeWX 2.04,2013-02-15 13:52:00,
2013-02-15 08:57:00,19.9,1.0,29.88,North,-999,0.0,2.7,43,0.00,,,-99.99,FreeWX 2.04,2013-02-15 13:57:00,
2013-02-15 09:02:00,20.5,1.0,29.88,North,-999,0.0,7.4,42,0.00,,,-99.99,FreeWX 2.04,2013-02-15 14:02:00,
2013-02-15 09:07:00,20.8,0.9,29.88,North,-999,0.0,2.7,41,0.00,,,-99.99,FreeWX 2.04,2013-02-15 14:07:00,
2013-02-15 09:12:00,21.2,0.7,29.88,North,-999,0.0,6.7,40,0.00,,,-99.99,FreeWX 2.04,2013-02-15 14:12:00,
2013-02-15 09:17:00,21.4,0.3,29.88,North,-999,0.0,3.6,39,0.00,,,-99.99,FreeWX 2.04,2013-02-15 14:17:00,
2013-02-15 09:22:00,21.4,-0.2,29.88,North,-999,0.0,6.9,38,0.00,,,-99.99,FreeWX 2.04,2013-02-15 14:22:00,
2013-02-15 09:27:00,21.4,-0.8,29.88,North,-999,0.0,8.3,37,0.00,,,-99.99,FreeWX 2.04,2013-02-15 14:27:00,
2013-02-15 09:32:00,21.4,-0.8,29.88,North,-999,0.0,0.0,37,0.00,,,-99.99,FreeWX 2.04,2013-02-15 14:32:00,
2013-02-15 09:37:00,21.6,-0.6,29.88,North,-999,0.0,0.0,37,0.00,,,-99.99,FreeWX 2.04,2013-02-15 14:37:00,
2013-02-15 09:42:00,22.1,-0.2,29.88,North,-999,0.0,4.5,37,0.00,,,-99.99,FreeWX 2.04,2013-02-15 14:42:00,
2013-02-15 09:47:00,22.1,-0.2,29.88,North,-999,0.0,0.0,37,0.00,,,-99.99,FreeWX 2.04,2013-02-15 14:47:00,
2013-02-15 09:52:00,22.1,-0.8,29.88,North,-999,0.0,6.7,36,0.00,,,-99.99,FreeWX 2.04,2013-02-15 14:52:00,
2013-02-15 09:57:00,22.1,-1.3,29.88,North,-999,0.0,7.4,35,0.00,,,-99.99,FreeWX 2.04,2013-02-15 14:57:00,
2013-02-15 10:02:00,22.5,-0.9,29.88,North,-999,0.0,6.9,35,0.00,,,-99.99,FreeWX 2.04,2013-02-15 15:02:00,
2013-02-15 10:07:00,23.2,-0.4,29.88,North,-999,0.0,3.6,35,0.00,,,-99.99,FreeWX 2.04,2013-02-15 15:07:00,
2013-02-15 10:12:00,23.9,0.3,29.88,North,-999,0.0,0.0,35,0.00,,,-99.99,FreeWX 2.04,2013-02-15 15:12:00,
2013-02-15 10:22:00,24.4,0.1,29.91,North,-999,0.0,6.3,34,0.00,,,-99.99,FreeWX 2.04,2013-02-15 15:22:00,
2013-02-15 10:27:00,25.0,0.7,29.91,North,-999,0.0,4.5,34,0.00,,,-99.99,FreeWX 2.04,2013-02-15 15:27:00,
2013-02-15 10:32:00,24.8,-0.2,29.91,WSW,257,1.0,9.2,33,0.00,,,-99.99,FreeWX 2.04,2013-02-15 15:32:00,
2013-02-15 10:37:00,25.0,0.0,29.91,WNW,294,1.0,7.8,33,0.00,,,-99.99,FreeWX 2.04,2013-02-15 15:37:00,
2013-02-15 10:42:00,25.5,0.5,29.91,North,-999,0.0,0.0,33,0.00,,,-99.99,FreeWX 2.04,2013-02-15 15:42:00,
2013-02-15 10:47:00,26.4,0.7,29.91,North,-999,0.0,4.0,32,0.00,,,-99.99,FreeWX 2.04,2013-02-15 15:47:00,
2013-02-15 10:52:00,27.0,1.0,29.91,North,-999,0.0,6.9,32,0.00,,,-99.99,FreeWX 2.04,2013-02-15 15:52:00,
2013-02-15 10:57:00,26.4,0.0,29.91,WNW,300,1.0,6.7,31,0.00,,,-99.99,FreeWX 2.04,2013-02-15 15:57:00,
2013-02-15 11:02:00,27.7,1.0,29.91,North,-999,0.0,6.3,31,0.00,,,-99.99,FreeWX 2.04,2013-02-15 16:02:00,
2013-02-15 11:07:00,27.0,-0.9,29.91,North,-999,0.0,5.4,29,0.00,,,-99.99,FreeWX 2.04,2013-02-15 16:07:00,
2013-02-15 11:12:00,26.6,-1.3,29.91,North,-999,0.0,6.9,29,0.00,,,-99.99,FreeWX 2.04,2013-02-15 16:12:00,
2013-02-15 11:17:00,28.8,1.9,29.91,North,-999,0.0,4.0,31,0.00,,,-99.99,FreeWX 2.04,2013-02-15 16:17:00,
2013-02-15 11:22:00,29.1,0.1,29.91,North,-999,0.0,4.0,28,0.00,,,-99.99,FreeWX 2.04,2013-02-15 16:22:00,
2013-02-15 11:27:00,28.0,-2.4,29.91,North,-999,0.0,5.8,26,0.00,,,-99.99,FreeWX 2.04,2013-02-15 16:27:00,
2013-02-15 11:32:00,28.0,-0.8,29.91,North,-999,0.0,3.1,28,0.00,,,-99.99,FreeWX 2.04,2013-02-15 16:32:00,
2013-02-15 11:37:00,28.8,-1.7,29.91,North,-999,0.0,6.7,26,0.00,,,-99.99,FreeWX 2.04,2013-02-15 16:37:00,
2013-02-15 11:42:00,27.9,-2.6,29.91,North,-999,0.0,5.4,26,0.00,,,-99.99,FreeWX 2.04,2013-02-15 16:42:00,
2013-02-15 11:47:00,27.7,-5.3,29.91,NW,326,1.0,6.9,23,0.00,,,-99.99,FreeWX 2.04,2013-02-15 16:47:00,
2013-02-15 11:52:00,28.9,-1.7,29.91,NW,321,1.0,11.6,26,0.00,,,-99.99,FreeWX 2.04,2013-02-15 16:52:00,
2013-02-15 11:57:00,29.3,-3.8,29.91,WNW,288,1.0,10.1,23,0.00,,,-99.99,FreeWX 2.04,2013-02-15 16:57:00,
2013-02-15 12:02:00,29.5,-2.0,29.91,North,-999,0.0,6.9,25,0.00,,,-99.99,FreeWX 2.04,2013-02-15 17:02:00,
2013-02-15 12:07:00,29.5,-2.0,29.91,North,-999,0.0,6.7,25,0.00,,,-99.99,FreeWX 2.04,2013-02-15 17:07:00,
2013-02-15 12:12:00,29.8,-1.7,29.91,North,-999,0.0,4.0,25,0.00,,,-99.99,FreeWX 2.04,2013-02-15 17:12:00,
2013-02-15 12:17:00,32.0,0.1,29.91,North,-999,0.0,7.4,25,0.00,,,-99.99,FreeWX 2.04,2013-02-15 17:17:00,
2013-02-15 12:22:00,31.8,-1.7,29.91,West,260,1.0,8.3,23,0.00,,,-99.99,FreeWX 2.04,2013-02-15 17:22:00,
2013-02-15 12:27:00,30.2,-3.1,29.91,West,267,1.0,5.4,23,0.00,,,-99.99,FreeWX 2.04,2013-02-15 17:27:00,
2013-02-15 12:32:00,28.4,-4.5,29.91,North,-999,0.0,5.4,23,0.00,,,-99.99,FreeWX 2.04,2013-02-15 17:32:00,
2013-02-15 12:37:00,28.2,-4.7,29.94,North,-999,0.0,3.1,23,0.00,,,-99.99,FreeWX 2.04,2013-02-15 17:37:00,
2013-02-15 12:42:00,28.4,-4.5,29.94,North,-999,0.0,6.9,23,0.00,,,-99.99,FreeWX 2.04,2013-02-15 17:42:00,
2013-02-15 12:47:00,28.9,-4.2,29.94,North,-999,0.0,6.7,23,0.00,,,-99.99,FreeWX 2.04,2013-02-15 17:47:00,
2013-02-15 12:52:00,29.3,-1.3,29.94,North,-999,0.0,4.0,26,0.00,,,-99.99,FreeWX 2.04,2013-02-15 17:52:00,
2013-02-15 12:57:00,28.0,-4.9,29.94,North,-999,0.0,4.0,23,0.00,,,-99.99,FreeWX 2.04,2013-02-15 17:57:00,
2013-02-15 13:02:00,28.4,-4.5,29.94,North,-999,0.0,5.4,23,0.00,,,-99.99,FreeWX 2.04,2013-02-15 18:02:00,
2013-02-15 13:07:00,29.1,-4.0,29.91,WNW,284,1.0,9.6,23,0.00,,,-99.99,FreeWX 2.04,2013-02-15 18:07:00,
2013-02-15 13:12:00,28.8,-4.4,29.91,West,280,1.0,6.3,23,0.00,,,-99.99,FreeWX 2.04,2013-02-15 18:12:00,
2013-02-15 13:17:00,28.4,-4.5,29.91,North,-999,0.0,3.1,23,0.00,,,-99.99,FreeWX 2.04,2013-02-15 18:17:00,
2013-02-15 13:22:00,28.8,-4.4,29.91,North,-999,0.0,9.2,23,0.00,,,-99.99,FreeWX 2.04,2013-02-15 18:22:00,
2013-02-15 13:27:00,28.8,-4.4,29.91,West,272,1.0,8.3,23,0.00,,,-99.99,FreeWX 2.04,2013-02-15 18:27:00,
2013-02-15 13:32:00,28.6,-4.5,29.91,WNW,295,1.0,6.9,23,0.00,,,-99.99,FreeWX 2.04,2013-02-15 18:32:00,
2013-02-15 13:37:00,21.2,-99.9,29.91,North,-999,0.0,4.0,-999,0.00,,,-99.99,FreeWX 2.04,2013-02-15 18:37:00,
2013-02-15 13:42:00,27.9,-5.1,29.91,North,-999,0.0,5.8,23,0.00,,,-99.99,FreeWX 2.04,2013-02-15 18:42:00,
2013-02-15 13:47:00,27.3,-4.7,29.91,North,-999,0.0,5.4,24,0.00,,,-99.99,FreeWX 2.04,2013-02-15 18:47:00,
2013-02-15 13:52:00,27.3,-4.7,29.91,North,-999,0.0,2.7,24,0.00,,,-99.99,FreeWX 2.04,2013-02-15 18:52:00,
2013-02-15 13:58:00,27.3,-4.7,29.91,North,-999,0.0,8.7,24,0.00,,,-99.99,FreeWX 2.04,2013-02-15 18:58:00,
2013-02-15 14:03:00,28.6,-4.5,29.91,North,-999,0.0,0.0,23,0.00,,,-99.99,FreeWX 2.04,2013-02-15 19:03:00,
2013-02-15 14:08:00,28.8,-4.4,29.91,North,-999,0.0,4.0,23,0.00,,,-99.99,FreeWX 2.04,2013-02-15 19:08:00,
2013-02-15 14:13:00,29.1,-4.0,29.91,North,-999,0.0,4.5,23,0.00,,,-99.99,FreeWX 2.04,2013-02-15 19:13:00,
2013-02-15 14:18:00,29.1,-4.0,29.91,North,-999,0.0,3.1,23,0.00,,,-99.99,FreeWX 2.04,2013-02-15 19:18:00,
2013-02-15 14:23:00,30.7,-0.9,29.91,North,-999,0.0,3.6,25,0.00,,,-99.99,FreeWX 2.04,2013-02-15 19:23:00,
2013-02-15 14:28:00,32.7,-0.9,29.91,North,-999,0.0,8.3,23,0.00,,,-99.99,FreeWX 2.04,2013-02-15 19:28:00,
2013-02-15 14:33:00,34.0,-0.8,29.91,West,266,1.0,6.7,22,0.00,,,-99.99,FreeWX 2.04,2013-02-15 19:33:00,
2013-02-15 14:38:00,33.1,-1.7,29.91,North,-999,0.0,4.9,22,0.00,,,-99.99,FreeWX 2.04,2013-02-15 19:38:00,
2013-02-15 14:43:00,33.1,-1.7,29.91,North,-999,0.0,4.9,22,0.00,,,-99.99,FreeWX 2.04,2013-02-15 19:43:00,
2013-02-15 14:48:00,30.7,-2.6,29.91,North,-999,0.0,5.8,23,0.00,,,-99.99,FreeWX 2.04,2013-02-15 19:48:00,
2013-02-15 14:53:00,29.5,-3.6,29.91,North,-999,0.0,5.8,23,0.00,,,-99.99,FreeWX 2.04,2013-02-15 19:53:00,
2013-02-15 14:58:00,28.8,-4.4,29.91,North,-999,0.0,5.8,23,0.00,,,-99.99,FreeWX 2.04,2013-02-15 19:58:00,
2013-02-15 15:03:00,28.8,-4.4,29.91,North,-999,0.0,3.6,23,0.00,,,-99.99,FreeWX 2.04,2013-02-15 20:03:00,
2013-02-15 15:08:00,28.4,-4.5,29.91,North,-999,0.0,5.8,23,0.00,,,-99.99,FreeWX 2.04,2013-02-15 20:08:00,
2013-02-15 15:13:00,28.0,-4.9,29.91,West,277,1.0,8.7,23,0.00,,,-99.99,FreeWX 2.04,2013-02-15 20:13:00,
2013-02-15 15:18:00,28.2,-4.7,29.91,West,281,1.0,6.3,23,0.00,,,-99.99,FreeWX 2.04,2013-02-15 20:18:00,
2013-02-15 15:23:00,28.6,-4.5,29.91,North,-999,0.0,5.4,23,0.00,,,-99.99,FreeWX 2.04,2013-02-15 20:23:00,
2013-02-15 15:28:00,28.4,-4.5,29.91,North,-999,0.0,8.3,23,0.00,,,-99.99,FreeWX 2.04,2013-02-15 20:28:00,
2013-02-15 15:33:00,28.8,-4.4,29.91,North,-999,0.0,4.0,23,0.00,,,-99.99,FreeWX 2.04,2013-02-15 20:33:00,
2013-02-15 15:38:00,28.8,-4.4,29.91,North,-999,0.0,0.0,23,0.00,,,-99.99,FreeWX 2.04,2013-02-15 20:38:00,
2013-02-15 15:43:00,28.8,-4.4,29.91,North,-999,0.0,0.0,23,0.00,,,-99.99,FreeWX 2.04,2013-02-15 20:43:00,
2013-02-15 15:48:00,28.4,-4.5,29.91,North,-999,0.0,4.0,23,0.00,,,-99.99,FreeWX 2.04,2013-02-15 20:48:00,
2013-02-15 15:53:00,28.2,-4.7,29.91,North,-999,0.0,4.5,23,0.00,,,-99.99,FreeWX 2.04,2013-02-15 20:53:00,
2013-02-15 15:58:00,28.4,-4.5,29.91,North,-999,0.0,4.0,23,0.00,,,-99.99,FreeWX 2.04,2013-02-15 20:58:00,
2013-02-15 16:03:00,29.1,-4.0,29.94,North,-999,0.0,0.0,23,0.00,,,-99.99,FreeWX 2.04,2013-02-15 21:03:00,
2013-02-15 16:08:00,28.6,-4.5,29.94,North,-999,0.0,2.7,23,0.00,,,-99.99,FreeWX 2.04,2013-02-15 21:08:00,
2013-02-15 16:13:00,27.9,-5.1,29.94,North,-999,0.0,0.0,23,0.00,,,-99.99,FreeWX 2.04,2013-02-15 21:13:00,
2013-02-15 16:18:00,27.1,-4.7,29.94,North,-999,0.0,2.7,24,0.00,,,-99.99,FreeWX 2.04,2013-02-15 21:18:00,
2013-02-15 16:23:00,26.4,-5.4,29.94,North,-999,0.0,6.3,24,0.00,,,-99.99,FreeWX 2.04,2013-02-15 21:23:00,
2013-02-15 16:28:00,26.4,-3.8,29.94,North,-999,0.0,4.5,26,0.00,,,-99.99,FreeWX 2.04,2013-02-15 21:28:00,
2013-02-15 16:33:00,26.2,-4.0,29.94,North,-999,0.0,0.0,26,0.00,,,-99.99,FreeWX 2.04,2013-02-15 21:33:00,
2013-02-15 16:38:00,26.1,-4.0,29.94,North,-999,0.0,0.0,26,0.00,,,-99.99,FreeWX 2.04,2013-02-15 21:38:00,
2013-02-15 16:43:00,26.1,-4.0,29.94,North,-999,0.0,5.4,26,0.00,,,-99.99,FreeWX 2.04,2013-02-15 21:43:00,
2013-02-15 16:48:00,26.1,-4.0,29.94,North,-999,0.0,0.0,26,0.00,,,-99.99,FreeWX 2.04,2013-02-15 21:48:00,
2013-02-15 16:53:00,25.9,-4.2,29.94,North,-999,0.0,0.0,26,0.00,,,-99.99,FreeWX 2.04,2013-02-15 21:53:00,
2013-02-15 16:58:00,25.5,-3.8,29.94,North,-999,0.0,4.0,27,0.00,,,-99.99,FreeWX 2.04,2013-02-15 21:58:00,
2013-02-15 17:03:00,25.3,-4.0,29.94,North,-999,0.0,3.1,27,0.00,,,-99.99,FreeWX 2.04,2013-02-15 22:03:00,
2013-02-15 17:08:00,25.2,-4.0,29.94,North,-999,0.0,0.0,27,0.00,,,-99.99,FreeWX 2.04,2013-02-15 22:08:00,
2013-02-15 17:13:00,25.2,-4.0,29.94,North,-999,0.0,2.7,27,0.00,,,-99.99,FreeWX 2.04,2013-02-15 22:13:00,
2013-02-15 17:18:00,25.0,-4.2,29.94,North,-999,0.0,0.0,27,0.00,,,-99.99,FreeWX 2.04,2013-02-15 22:18:00,
2013-02-15 17:23:00,24.8,-4.4,29.94,North,-999,0.0,0.0,27,0.00,,,-99.99,FreeWX 2.04,2013-02-15 22:23:00,
2013-02-15 17:28:00,24.6,-4.5,29.94,North,-999,0.0,3.6,27,0.00,,,-99.99,FreeWX 2.04,2013-02-15 22:28:00,
2013-02-15 17:33:00,24.6,-3.1,29.94,North,-999,0.0,0.0,29,0.00,,,-99.99,FreeWX 2.04,2013-02-15 22:33:00,
2013-02-15 17:38:00,24.4,-3.3,29.94,North,-999,0.0,3.6,29,0.00,,,-99.99,FreeWX 2.04,2013-02-15 22:38:00,
2013-02-15 17:43:00,24.3,-3.3,29.94,North,-999,0.0,0.0,29,0.00,,,-99.99,FreeWX 2.04,2013-02-15 22:43:00,
2013-02-15 17:48:00,24.1,-3.5,29.94,North,-999,0.0,0.0,29,0.00,,,-99.99,FreeWX 2.04,2013-02-15 22:48:00,
2013-02-15 17:53:00,24.1,-3.5,29.94,North,-999,0.0,0.0,29,0.00,,,-99.99,FreeWX 2.04,2013-02-15 22:53:00,
2013-02-15 17:58:00,23.9,-1.7,29.94,North,-999,0.0,0.0,32,0.00,,,-99.99,FreeWX 2.04,2013-02-15 22:58:00,
2013-02-15 18:03:00,23.9,-1.7,29.94,North,-999,0.0,0.0,32,0.00,,,-99.99,FreeWX 2.04,2013-02-15 23:03:00,
2013-02-15 18:08:00,23.7,-1.8,29.94,North,-999,0.0,0.0,32,0.00,,,-99.99,FreeWX 2.04,2013-02-15 23:08:00,
2013-02-15 18:13:00,23.5,-1.3,29.94,North,-999,0.0,4.0,33,0.00,,,-99.99,FreeWX 2.04,2013-02-15 23:13:00,
2013-02-15 18:18:00,23.5,-1.3,29.97,North,-999,0.0,0.0,33,0.00,,,-99.99,FreeWX 2.04,2013-02-15 23:18:00,
2013-02-15 18:23:00,23.4,-1.5,29.97,North,-999,0.0,0.0,33,0.00,,,-99.99,FreeWX 2.04,2013-02-15 23:23:00,
2013-02-15 18:28:00,23.2,-1.7,29.97,North,-999,0.0,5.4,33,0.00,,,-99.99,FreeWX 2.04,2013-02-15 23:28:00,
2013-02-15 18:33:00,23.0,-1.1,29.97,North,-999,0.0,0.0,34,0.00,,,-99.99,FreeWX 2.04,2013-02-15 23:33:00,
2013-02-15 18:38:00,23.0,-1.1,29.97,North,-999,0.0,0.0,34,0.00,,,-99.99,FreeWX 2.04,2013-02-15 23:38:00,
2013-02-15 18:43:00,23.0,-0.6,29.97,North,-999,0.0,0.0,35,0.00,,,-99.99,FreeWX 2.04,2013-02-15 23:43:00,
2013-02-15 18:48:00,23.0,-0.6,29.97,North,-999,0.0,0.0,35,0.00,,,-99.99,FreeWX 2.04,2013-02-15 23:48:00,
2013-02-15 18:53:00,23.0,-0.6,29.97,North,-999,0.0,0.0,35,0.00,,,-99.99,FreeWX 2.04,2013-02-15 23:53:00,
2013-02-15 18:58:00,22.8,0.0,29.97,North,-999,0.0,0.0,36,0.00,,,-99.99,FreeWX 2.04,2013-02-15 23:58:00,
2013-02-15 19:03:00,22.8,0.0,29.97,North,-999,0.0,0.0,36,0.00,,,-99.99,FreeWX 2.04,2013-02-16 00:03:00,
2013-02-15 19:08:00,22.8,0.0,29.97,North,-999,0.0,5.8,36,0.00,,,-99.99,FreeWX 2.04,2013-02-16 00:08:00,
2013-02-15 19:13:00,22.6,0.3,29.97,North,-999,0.0,0.0,37,0.00,,,-99.99,FreeWX 2.04,2013-02-16 00:13:00,
2013-02-15 19:18:00,22.6,0.9,29.97,North,-999,0.0,3.1,38,0.00,,,-99.99,FreeWX 2.04,2013-02-16 00:18:00,
2013-02-15 19:23:00,22.5,0.7,29.97,North,-999,0.0,0.0,38,0.00,,,-99.99,FreeWX 2.04,2013-02-16 00:23:00,
2013-02-15 19:28:00,22.5,1.2,29.97,North,-999,0.0,0.0,39,0.00,,,-99.99,FreeWX 2.04,2013-02-16 00:28:00,
2013-02-15 19:33:00,22.5,1.8,29.97,North,-999,0.0,0.0,40,0.00,,,-99.99,FreeWX 2.04,2013-02-16 00:33:00,
2013-02-15 19:38:00,22.5,2.3,29.97,North,-999,0.0,0.0,41,0.00,,,-99.99,FreeWX 2.04,2013-02-16 00:38:00,
2013-02-15 19:43:00,22.5,2.3,29.97,North,-999,0.0,2.7,41,0.00,,,-99.99,FreeWX 2.04,2013-02-16 00:43:00,
2013-02-15 19:48:00,22.5,2.8,29.97,North,-999,0.0,5.4,42,0.00,,,-99.99,FreeWX 2.04,2013-02-16 00:48:00,
2013-02-15 19:53:00,22.3,2.7,29.97,North,-999,0.0,5.8,42,0.00,,,-99.99,FreeWX 2.04,2013-02-16 00:53:00,
2013-02-15 19:58:00,22.1,2.5,29.97,North,-999,0.0,0.0,42,0.00,,,-99.99,FreeWX 2.04,2013-02-16 00:58:00,
2013-02-15 20:03:00,22.1,2.5,29.97,North,-999,0.0,0.0,42,0.00,,,-99.99,FreeWX 2.04,2013-02-16 01:03:00,
2013-02-15 20:08:00,22.1,3.0,29.97,North,-999,0.0,0.0,43,0.00,,,-99.99,FreeWX 2.04,2013-02-16 01:08:00,
2013-02-15 20:13:00,22.1,3.0,29.97,North,-999,0.0,0.0,43,0.00,,,-99.99,FreeWX 2.04,2013-02-16 01:13:00,
2013-02-15 20:18:00,22.1,3.0,29.97,North,-999,0.0,0.0,43,0.00,,,-99.99,FreeWX 2.04,2013-02-16 01:18:00,
2013-02-15 20:23:00,21.9,2.8,29.97,North,-999,0.0,0.0,43,0.00,,,-99.99,FreeWX 2.04,2013-02-16 01:23:00,
2013-02-15 20:28:00,21.9,2.8,29.97,North,-999,0.0,5.8,43,0.00,,,-99.99,FreeWX 2.04,2013-02-16 01:28:00,
2013-02-15 20:33:00,21.7,2.7,29.97,North,-999,0.0,3.1,43,0.00,,,-99.99,FreeWX 2.04,2013-02-16 01:33:00,
2013-02-15 20:38:00,21.6,2.5,29.97,North,-999,0.0,0.0,43,0.00,,,-99.99,FreeWX 2.04,2013-02-16 01:38:00,